Weather in Belyayevka

Russia / Perm Krai     57°28′08″N   55°28′27″E
temp.,
°C
wind,
m/s
gust,
m/s
humid.,
%
clouds,
%
prec.,
mm/h
press.,
hPa
HPBL,
m
19 january, wed
wed1923:00−4ssw51395100 1.0 1008705
02:00−4ssw51395100 0.9 1009705
05:00−3ssw51395100 1.8 1010776
08:00−2ssw61394100 0.6 1011767
11:00−3ssw5129397 0.9 1012747
14:00−2ssw51191100 0.1 1014722
17:00−4ssw51292100 0.3 1015551
20:00−4s5139397 0.1 1016537
20 january, thu
thu2023:00−4s51295100 0.3 1016639
02:00−5s61294100 0.4 1016642
05:00−5s51293100 0.8 1017604
08:00−6ssw51293100 0.3 1017703
11:00−6ssw51293100 0.5 1018675
14:00−6ssw51192100 0.2 1019789
17:00−6ssw41093100 0.3 1019575
20:00−7ssw41193100 0.1 1020647
21 january, fri
fri2123:00−8s41194100 0.3 1020448
02:00−10s41195100 0.1 1021347
05:00−11s3109591 0.3 1022303
08:00−13s389792 0.1 1023199
11:00−14s289788 0.1 1024202
14:00−11s369293 0.1 1024239
17:00−13se119739 0.1 102510
20:00−17se119813 0.0 102610
22 january, sat
sat2223:00−18se11975 0.0 102710
02:00−19ese11965 0.0 10279
05:00−19e119654 0.0 10279
08:00−20ene119651 0.0 10289
11:00−14e1190100 0.0 102837
14:00−9se1286100 0.0 1028190
17:00−10sse1195100 0.0 102910
20:00−13ese1197100 0.0 103010
23 january, sun
sun2323:00−16e119884 0.0 103010
02:00−16ese119896 0.0 103210
05:00−18e119871 0.0 10339
08:00−19e119879 0.0 10349
11:00−15ese119079 0.0 103529
14:00−9s1177100 0.0 1035129
17:00−10ene1193100 0.0 103610
20:00−11se0095100 0.0 10379